Regional Weather Roundup
Issued by NWS Green Bay, WI

Home | Current Version | Previous Version | Text Only | Print | Product List | Glossary On
Versions: 1 2 3 4 5 6 7 8 9 10 11 12 13 14 15 16 17 18 19 20 21 22 23 24 25 26 27 28 29 30 31 32 33 34 35 36 37 38 39 40 41 42 43 44 45 46 47 48 49 50
000
ASUS43 KGRB 290200
RWRGRB

NORTH-CENTRAL AND NORTHEAST WISCONSIN REGIONAL WEATHER ROUNDUP
NATIONAL WEATHER SERVICE GREEN BAY WI
900 PM CDT FRI AUG 28 2015

WIZ005-009-010>012-018-019-290300-
NORTH CENTRAL WISCONSIN

CITY           SKY/WX    TMP DP  RH WIND       PRES   REMARKS
IRONWOOD       PTCLDY    68  61  77 S15G22    29.98S
MANITOWISH WTR NOT AVBL
ARBOR VITAE    NOT AVBL
EAGLE RIVER    NOT AVBL
LAND O LAKES   NOT AVBL
RHINELANDER    MOCLDY    64  60  87 SW7       30.09R
PHILLIPS       PTCLDY    63  61  94 S6        30.06R
ANTIGO         NOT AVBL
TOMAHAWK       MOCLDY    60  58  94 CALM      30.09R
MERRILL        CLOUDY    62  61  97 S6        30.10R
$$

WIZ013-073-290300-
NORTHEAST WISCONSIN

CITY           SKY/WX    TMP DP  RH WIND       PRES   REMARKS
IRON MOUNTAIN  CLOUDY    68  61  78 SW6       30.04R
MARINETTE      CLOUDY    64  57  77 SW8       30.07R
OCONTO         CLOUDY    63  63 100 CALM      30.09R
$$

WIZ017-030-035>037-045-290300-
CENTRAL WISCONSIN

CITY           SKY/WX    TMP DP  RH WIND       PRES   REMARKS
MEDFORD        NOT AVBL
WAUSAU         CLOUDY    63  60  90 SW8       30.09R
MOSINEE        NOT AVBL
MARSHFIELD     CLOUDY    60  55  83 S6        30.10R
WISC RAPIDS    CLOUDY    59  56  89 S5        30.12R
STEVENS POINT  NOT AVBL
WAUPACA        RAIN      61  60  97 SW6       30.13R
SHAWANO        NOT AVBL
CLINTONVILLE   DRIZZLE   61  57  88 SW9       30.11R
WAUTOMA        NOT AVBL
$$

WIZ038-039-048-051-290300-
FOX VALLEY

CITY           SKY/WX    TMP DP  RH WIND       PRES   REMARKS
NWS GREEN BAY  LGT RAIN  63  61  93 SW5       30.10R
APPLETON       LGT RAIN  63  61  94 SW7       30.10R
OSHKOSH        LGT RAIN  61  57  87 SW3       30.11R FOG
FOND DU LAC    LGT RAIN  61  58  90 SW6       30.12R
$$

WIZ022-050-052-290300-
EAST CENTRAL WISCONSIN

CITY           SKY/WX    TMP DP  RH WIND       PRES   REMARKS
EPHRAIM        NOT AVBL
STURGEON BAY   CLOUDY    64  61  88 SW5       30.11R
MANITOWOC      NOT AVBL
SHEBOYGAN      LGT RAIN  63  61  93 S6        30.12R FOG
$$

LMZ563-521-522-541>543-290300-
LAKESHORE

STATION/POSITION TIME  TEMP    WIND        PRES    VSBY  WAVE
                       AIR SEA DIR/SP/G                  HT/PER
                 (UTC) (F)     (DEG/KT/KT) (MB)    (MI)  (FT/S)
SHEBOYGAN LKSHOR 0100   61     200/  8/  8 1019.6R
ALGOMA MARINA    0114          220/  8/  9   N/A
NORTHPORT PIER   0100   67     200/  4/  9 1017.3S
N MID LAKE BUOY  0050   63 64  210/ 19/ 23 1016.7F         3/ 4
S GREEN BAY BUOY 0100   64 62  200/  8/ 10 1019.1R
SISTER BAY LKSHO 0134   66     200/  9/ 11   N/A
CHAMBERS ISLAND  0100   65     180/  7/ 11 1017.3S
$$



USA.gov is the U.S. government's official web portal to all federal, state and local government web resources and services.